FW0960 Weather Reports


time (UTC)temp
F
wind
direction
speed
knots
gust
knots
rain 1hr
in
rain 24hr
in
rain mn
in
humidity
%
barometer
mb
20210518201134 73 342 0.9 2.6 0.00 0.00 0.00 48 1027.2
20210518195632 73 341 0.9 2.6 0.00 0.00 0.00 46 1027.2
20210518195130 73 340 0.9 2.6 0.00 0.00 0.00 47 1027.3
20210518194629 73 341 1.7 3.5 0.00 0.00 0.00 47 1027.4
20210518194128 74 311 0.9 3.5 0.00 0.00 0.00 48 1027.4
20210518193629 74 333 0.9 2.6 0.00 0.00 0.00 49 1027.5
20210518193128 73 196 0.9 2.6 0.00 0.00 0.00 53 1027.5
20210518192124 73 342 1.7 3.5 0.00 0.00 0.00 54 1027.6
20210518191625 73 349 0.9 3.5 0.00 0.00 0.00 50 1027.7
20210518191127 73 349 0.9 3.5 0.00 0.00 0.00 53 1027.8
20210518190624 73 340 0.9 2.6 0.00 0.00 0.00 56 1027.7
20210518190127 73 343 0.9 2.6 0.00 0.00 0.00 59 1027.8
20210518185623 73 342 0.9 2.6 0.00 0.00 0.00 58 1028.0
20210518185125 72 264 0.9 2.6 0.00 0.00 0.00 59 1028.1
20210518184624 72 232 0.9 2.6 0.00 0.00 0.00 58 1028.1
20210518184124 72 329 0.9 2.6 0.00 0.00 0.00 59 1028.2
20210518183625 72 312 0.9 2.6 0.00 0.00 0.00 60 1028.3
20210518183125 71 284 0.9 3.5 0.00 0.00 0.00 62 1028.2
20210518182623 71 355 0.9 3.5 0.00 0.00 0.00 62 1028.3
20210518182125 71 24 0.9 3.5 0.00 0.00 0.00 61 1028.2
20210518181623 72 5 0.9 3.5 0.00 0.00 0.00 62 1028.3
20210518181124 72 333 0.9 3.5 0.00 0.00 0.00 65 1028.4
20210518180623 72 342 0.9 2.6 0.00 0.00 0.00 64 1028.4
20210518175619 72 347 0.9 2.6 0.00 0.00 0.00 67 1028.5
20210518175121 72 355 0.9 2.6 0.00 0.00 0.00 63 1028.5
20210518174616 71 355 0.9 2.6 0.00 0.00 0.00 62 1028.5
20210518174117 72 355 0.9 2.6 0.00 0.00 0.00 61 1028.5
20210518173617 72 355 0.9 2.6 0.00 0.00 0.00 63 1028.5
20210518173115 72 355 0.9 3.5 0.00 0.00 0.00 61 1028.5
20210518172625 72 355 0.9 3.5 0.00 0.00 0.00 61 1028.7
20210518172114 73 14 0.9 2.6 0.00 0.00 0.00 65 1028.8
20210518171615 73 329 0.9 3.5 0.00 0.00 0.00 60 1028.8
20210518171116 73 327 0.9 3.5 0.00 0.00 0.00 59 1028.8
20210518170609 73 327 0.9 2.6 0.00 0.00 0.00 62 1028.8
20210518170104 73 327 0.9 2.6 0.00 0.00 0.00 55 1028.8
20210518165632 73 254 0.9 2.6 0.00 0.00 0.00 56 1028.8
20210518164603 73 271 0.9 2.6 0.00 0.00 0.00 58 1029.0
20210518164104 73 288 0.9 2.6 0.00 0.00 0.00 58 1029.0
20210518163601 73 327 0.0 1.7 0.00 0.00 0.00 59 1029.0
20210518163100 72 327 0.0 1.7 0.00 0.00 0.00 60 1029.0
20210518162603 72 327 0.0 1.7 0.00 0.00 0.00 61 1029.2
20210518162102 72 327 0.0 1.7 0.00 0.00 0.00 63 1029.3
20210518161128 71 332 0.9 3.5 0.00 0.00 0.00 60 1029.4
20210518160605 71 332 0.9 3.5 0.00 0.00 0.00 59 1029.4
20210518160102 71 301 0.0 1.7 0.00 0.00 0.00 61 1029.5
20210518155602 71 268 0.0 0.0 0.00 0.00 0.00 61 1029.5
20210518155104 71 268 0.0 0.9 0.00 0.00 0.00 61 1029.4
20210518154608 71 267 0.0 0.9 0.00 0.00 0.00 59 1029.5
20210518154119 71 5 0.0 0.9 0.00 0.00 0.00 60 1029.5
20210518153600 70 5 0.0 2.6 0.00 0.00 0.00 62 1029.6
20210518153104 70 5 0.9 2.6 0.00 0.00 0.00 61 1029.6
20210518152602 70 5 0.9 2.6 0.00 0.00 0.00 63 1029.7
20210518152103 70 5 0.0 2.6 0.00 0.00 0.00 62 1029.6
20210518151603 70 155 0.0 1.7 0.00 0.00 0.00 64 1029.6
20210518150606 69 155 0.0 2.6 0.00 0.00 0.00 58 1029.8
20210518150101 69 155 0.0 3.5 0.00 0.00 0.00 57 1029.7
20210518145603 69 167 0.0 3.5 0.00 0.00 0.00 56 1029.6
20210518145101 69 167 0.9 2.6 0.00 0.00 0.00 56 1029.6
20210518144601 69 167 0.9 2.6 0.00 0.00 0.00 56 1029.5
20210518144104 69 194 0.9 1.7 0.00 0.00 0.00 56 1029.6
20210518143602 68 198 0.9 2.6 0.00 0.00 0.00 59 1029.6
20210518143101 68 198 0.9 3.5 0.00 0.00 0.00 57 1029.5
20210518142557 68 209 0.9 3.5 0.00 0.00 0.00 60 1029.6
20210518142056 68 101 0.9 3.5 0.00 0.00 0.00 63 1029.6
20210518141556 67 198 0.9 3.5 0.00 0.00 0.00 60 1029.6
20210518141057 67 198 0.9 3.5 0.00 0.00 0.00 61 1029.6
20210518140556 67 150 0.9 2.6 0.00 0.00 0.00 59 1029.6
20210518140057 67 224 0.9 3.5 0.00 0.00 0.00 60 1029.7
20210518135549 67 224 0.9 3.5 0.00 0.00 0.00 58 1029.8
20210518135046 66 150 0.9 3.5 0.00 0.00 0.00 62 1029.8
20210518134548 66 227 1.7 5.2 0.00 0.00 0.00 61 1029.8
20210518134044 66 182 0.9 5.2 0.00 0.00 0.00 64 1029.8
20210518133544 65 185 0.9 3.5 0.00 0.00 0.00 68 1029.8
20210518133041 65 232 0.9 4.3 0.00 0.00 0.00 66 1029.8
20210518132545 65 232 0.9 4.3 0.00 0.00 0.00 67 1029.7
20210518132040 65 147 0.9 3.5 0.00 0.00 0.00 66 1029.6
20210518131541 65 164 0.0 1.7 0.00 0.00 0.00 70 1029.5
20210518131039 64 169 0.9 3.5 0.00 0.00 0.00 71 1029.5
20210518130535 64 169 0.9 3.5 0.00 0.00 0.00 71 1029.4
20210518130035 64 167 0.9 3.5 0.00 0.00 0.00 74 1029.3
20210518125534 63 157 0.0 2.6 0.00 0.00 0.00 74 1029.4
20210518125036 63 80 0.0 1.7 0.00 0.00 0.00 74 1029.2
20210518124532 62 200 0.0 1.7 0.00 0.00 0.00 77 1029.1
20210518124032 62 200 0.0 1.7 0.00 0.00 0.00 77 1029.2
20210518123531 61 231 0.0 2.6 0.00 0.00 0.00 80 1029.1
20210518123028 60 231 0.0 2.6 0.00 0.00 0.00 82 1029.0
20210518122530 59 251 0.0 2.6 0.00 0.00 0.00 84 1029.0
20210518122030 59 271 0.0 1.7 0.00 0.00 0.00 86 1028.9
20210518121532 58 271 0.0 1.7 0.00 0.00 0.00 90 1028.9
20210518121032 57 271 0.0 0.0 0.00 0.00 0.00 91 1028.9
20210518120531 57 271 0.0 0.0 0.00 0.00 0.00 92 1028.8
20210518120030 56 271 0.0 0.0 0.00 0.00 0.00 93 1028.7
20210518115529 56 271 0.0 0.0 0.00 0.00 0.00 95 1028.7
20210518115029 56 271 0.0 0.0 0.00 0.00 0.00 96 1028.7
20210518114529 55 271 0.0 0.0 0.00 0.00 0.00 96 1028.7
20210518114029 55 271 0.0 0.0 0.00 0.00 0.00 96 1028.6
20210518113534 54 271 0.0 0.0 0.00 0.00 0.00 97 1028.5
20210518113029 54 271 0.0 0.9 0.00 0.00 0.00 97 1028.5
20210518112532 54 271 0.0 0.9 0.00 0.00 0.00 97 1028.5
20210518112030 53 271 0.0 0.0 0.00 0.00 0.00 97 1028.3
20210518111531 53 271 0.0 0.0 0.00 0.00 0.00 96 1028.3
20210518111029 53 271 0.0 0.0 0.00 0.00 0.00 96 1028.2
20210518110529 53 271 0.0 0.0 0.00 0.00 0.00 96 1028.2
20210518110030 52 271 0.0 0.0 0.00 0.00 0.00 96 1028.1
20210518105530 52 271 0.0 0.0 0.00 0.00 0.00 96 1028.1
20210518104540 52 271 0.0 0.0 0.00 0.00 0.00 96 1027.9
20210518104029 52 271 0.0 0.0 0.00 0.00 0.00 96 1027.8
20210518103532 52 271 0.0 0.0 0.00 0.00 0.00 96 1027.9
20210518102532 52 271 0.0 0.0 0.00 0.00 0.00 95 1027.9
20210518102029 51 271 0.0 0.0 0.00 0.00 0.00 95 1027.8
20210518101025 52 271 0.0 0.0 0.00 0.00 0.00 95 1027.8
20210518100526 52 271 0.0 0.0 0.00 0.00 0.00 95 1027.7
20210518100023 52 271 0.0 0.0 0.00 0.00 0.00 95 1027.8
20210518095020 52 271 0.0 0.0 0.00 0.00 0.00 95 1027.8
20210518094009 52 271 0.0 0.0 0.00 0.00 0.00 95 1027.6
20210518093508 52 271 0.0 0.0 0.00 0.00 0.00 95 1027.7
20210518093011 52 271 0.0 0.0 0.00 0.00 0.00 95 1027.6
20210518092506 52 271 0.0 0.0 0.00 0.00 0.00 95 1027.6
20210518092008 52 271 0.0 0.0 0.00 0.00 0.00 95 1027.6
20210518091504 53 271 0.0 0.0 0.00 0.00 0.00 95 1027.4
20210518091001 53 271 0.0 0.0 0.00 0.00 0.00 94 1027.5
20210518090504 53 271 0.0 0.0 0.00 0.00 0.00 94 1027.4
20210518085005 53 271 0.0 0.0 0.00 0.00 0.00 95 1027.3
20210518084503 53 271 0.0 0.0 0.00 0.00 0.00 95 1027.3
20210518084006 53 271 0.0 0.0 0.00 0.00 0.00 95 1027.2
20210518083501 53 271 0.0 0.0 0.00 0.00 0.00 95 1027.2
20210518083002 53 271 0.0 0.0 0.00 0.00 0.00 94 1027.2
20210518082504 53 271 0.0 0.0 0.00 0.00 0.00 94 1027.2
20210518082002 54 271 0.0 0.0 0.00 0.00 0.00 94 1027.2
20210518081504 54 271 0.0 0.0 0.00 0.00 0.00 95 1027.3
20210518081000 54 271 0.0 0.0 0.00 0.00 0.00 94 1027.1
20210518075958 54 271 0.0 0.0 0.00 0.00 0.00 94 1027.1
20210518075457 54 271 0.0 0.0 0.00 0.00 0.00 94 1027.1
20210518074958 54 271 0.0 0.0 0.00 0.00 0.00 94 1027.1
20210518074453 54 271 0.0 0.0 0.00 0.00 0.00 94 1027.1
20210518073951 54 271 0.0 0.0 0.00 0.00 0.00 94 1027.1
20210518073448 54 271 0.0 0.0 0.00 0.00 0.00 94 1027.1
20210518072951 54 271 0.0 0.0 0.00 0.00 0.00 94 1027.1
20210518072450 54 271 0.0 0.0 0.00 0.00 0.00 94 1027.0
20210518071447 54 271 0.0 0.0 0.00 0.00 0.00 94 1027.1
20210518070943 54 271 0.0 0.0 0.00 0.00 0.00 94 1027.1
20210518070442 54 271 0.0 0.0 0.00 0.00 0.00 93 1026.9
20210518065938 54 271 0.0 0.0 0.00 0.00 0.00 93 1026.9
20210518065438 54 271 0.0 0.0 0.00 0.00 0.00 94 1027.0
20210518064939 54 271 0.0 0.0 0.00 0.00 0.00 94 1027.0
20210518064435 54 271 0.0 0.0 0.00 0.00 0.00 94 1026.9
20210518063935 54 271 0.0 0.0 0.00 0.00 0.00 94 1026.9
20210518063438 54 271 0.0 0.0 0.00 0.00 0.00 94 1027.0
20210518062935 54 271 0.0 0.0 0.00 0.00 0.00 93 1026.9
20210518062434 54 271 0.0 0.0 0.00 0.00 0.00 93 1026.9
20210518061939 54 271 0.0 0.0 0.00 0.00 0.00 93 1026.9
20210518061434 54 271 0.0 0.0 0.00 0.00 0.00 93 1026.8
20210518060935 54 271 0.0 0.0 0.00 0.00 0.00 92 1026.8
20210518060432 54 271 0.0 0.0 0.00 0.00 0.00 92 1026.9
20210518055930 54 271 0.0 0.0 0.00 0.00 0.00 92 1026.9
20210518055434 54 271 0.0 0.0 0.00 0.00 0.00 92 1027.0
20210518054432 54 271 0.0 0.0 0.00 0.00 0.00 92 1026.9
20210518053932 55 271 0.0 0.0 0.00 0.00 0.00 92 1027.0
20210518052929 55 271 0.0 0.0 0.00 0.00 0.00 91 1027.0
20210518052431 55 271 0.0 0.0 0.00 0.00 0.00 91 1027.0
20210518051930 55 271 0.0 0.0 0.00 0.00 0.00 90 1026.9
20210518050924 55 271 0.0 0.0 0.00 0.00 0.00 90 1027.0
20210518050423 55 271 0.0 0.0 0.00 0.00 0.00 90 1026.9
20210518045923 55 271 0.0 0.0 0.00 0.00 0.00 90 1027.0
20210518045425 55 271 0.0 0.0 0.00 0.00 0.00 90 1027.0
20210518044920 56 271 0.0 0.0 0.00 0.00 0.00 90 1027.0
20210518044422 56 271 0.0 0.0 0.00 0.00 0.00 90 1027.1
20210518043921 56 271 0.0 0.0 0.00 0.00 0.00 89 1027.1
20210518043420 56 271 0.0 0.0 0.00 0.00 0.00 89 1027.2
20210518042921 56 271 0.0 0.0 0.00 0.00 0.00 88 1027.3
20210518042420 56 271 0.0 0.0 0.00 0.00 0.00 88 1027.1
20210518041938 56 271 0.0 0.0 0.00 0.00 0.00 88 1027.1
20210518041421 56 271 0.0 0.0 0.00 0.00 0.00 88 1027.3
20210518040920 56 271 0.0 0.0 0.00 0.00 0.00 87 1027.1
20210518040415 56 271 0.0 0.0 0.00 0.00 0.00 87 1027.1
20210518035911 56 271 0.0 0.0 0.00 0.00 0.00 87 1027.1
20210518035416 56 271 0.0 0.0 0.00 0.00 0.00 86 1027.0
20210518034906 56 271 0.0 0.0 0.00 0.00 0.00 86 1027.0
20210518034404 56 271 0.0 0.0 0.00 0.00 0.00 85 1027.0
20210518033903 56 271 0.0 0.0 0.00 0.00 0.00 85 1027.1
20210518033404 56 271 0.0 0.0 0.00 0.00 0.00 84 1027.0
20210518032902 57 271 0.0 0.0 0.00 0.00 0.00 84 1027.0
20210518032404 57 271 0.0 0.0 0.00 0.00 0.00 84 1027.0
20210518031903 57 271 0.0 0.0 0.00 0.00 0.00 84 1027.0
20210518030902 57 271 0.0 0.0 0.00 0.00 0.00 83 1027.0
20210518025859 57 271 0.0 0.0 0.00 0.00 0.00 82 1027.1
20210518024853 57 271 0.0 0.0 0.00 0.00 0.00 81 1027.1
20210518024351 57 271 0.0 0.0 0.00 0.00 0.00 81 1027.1
20210518023854 58 271 0.0 0.0 0.00 0.00 0.00 81 1027.1
20210518023347 58 271 0.0 0.0 0.00 0.00 0.00 80 1027.1
20210518022850 58 271 0.0 0.0 0.00 0.00 0.00 81 1027.1
20210518021845 58 271 0.0 0.0 0.00 0.00 0.00 79 1027.0
20210518021342 58 271 0.0 0.0 0.00 0.00 0.00 78 1027.0
20210518020341 58 271 0.0 0.0 0.00 0.00 0.00 75 1027.1
20210518015844 58 271 0.0 0.0 0.00 0.00 0.00 74 1027.0
20210518015336 59 271 0.0 0.0 0.00 0.00 0.00 76 1026.9
20210518014838 59 271 0.0 0.0 0.00 0.00 0.00 77 1026.9
20210518014338 59 271 0.0 0.0 0.00 0.00 0.00 78 1026.8
20210518013836 59 271 0.0 0.0 0.00 0.00 0.00 74 1026.8
20210518013335 59 271 0.0 0.0 0.00 0.00 0.00 74 1026.8
20210518012331 60 271 0.0 0.0 0.00 0.00 0.00 69 1026.7
20210518011831 60 271 0.0 0.0 0.00 0.00 0.00 69 1026.6
20210518010832 60 271 0.0 0.0 0.00 0.00 0.00 68 1026.6
20210518005828 61 271 0.0 0.0 0.00 0.00 0.00 67 1026.5
20210518005328 61 271 0.0 0.0 0.00 0.00 0.00 65 1026.3
20210518004831 61 271 0.0 0.0 0.00 0.00 0.00 64 1026.4
20210518003825 62 271 0.0 0.0 0.00 0.00 0.00 63 1026.4
20210518003326 62 271 0.0 0.0 0.00 0.00 0.00 62 1026.3
20210518002825 62 271 0.0 0.0 0.00 0.00 0.00 61 1026.3
20210518002319 62 271 0.0 0.0 0.00 0.00 0.00 61 1026.3
20210518001820 63 271 0.0 0.0 0.00 0.00 0.00 61 1026.4
20210518001323 63 271 0.0 0.0 0.00 0.00 0.00 61 1026.4
20210518000820 63 271 0.0 0.0 0.00 0.00 0.00 60 1026.4
20210517235819 63 271 0.0 0.9 0.00 0.00 0.00 60 1026.5
20210517235317 64 271 0.0 0.9 0.00 0.00 0.00 61 1026.5
20210517234810 64 271 0.0 0.9 0.00 0.00 0.00 60 1026.3
20210517234310 64 271 0.0 0.9 0.00 0.00 0.00 59 1026.3
20210517233805 64 271 0.0 0.9 0.00 0.00 0.00 58 1026.1
20210517233308 64 271 0.0 1.7 0.00 0.00 0.00 59 1026.1
20210517232803 64 271 0.0 1.7 0.00 0.00 0.00 59 1026.1
20210517232306 65 271 0.0 0.9 0.00 0.00 0.00 59 1026.0
20210517231806 65 271 0.0 0.9 0.00 0.00 0.00 58 1026.1
20210517231305 65 271 0.0 0.9 0.00 0.00 0.00 59 1026.0
20210517230759 65 271 0.0 0.9 0.00 0.00 0.00 59 1025.9
20210517230259 65 271 0.0 1.7 0.00 0.00 0.00 57 1026.1
20210517225255 66 271 0.0 2.6 0.00 0.00 0.00 59 1026.0
20210517224800 66 271 0.0 2.6 0.00 0.00 0.00 59 1025.9
20210517224257 67 269 0.0 2.6 0.00 0.00 0.00 57 1025.9
20210517223756 67 269 0.9 2.6 0.00 0.00 0.00 56 1026.0
20210517223253 67 259 0.9 2.6 0.00 0.00 0.00 55 1025.9
20210517222757 67 259 0.9 2.6 0.00 0.00 0.00 56 1025.9
20210517222247 67 259 0.9 2.6 0.00 0.00 0.00 57 1026.0
20210517221247 68 258 0.0 0.9 0.00 0.00 0.00 58 1026.0
20210517220746 68 258 0.0 1.7 0.00 0.00 0.00 57 1026.0
20210517220244 67 258 0.9 2.6 0.00 0.00 0.00 54 1026.1
20210517215747 67 254 0.9 2.6 0.00 0.00 0.00 55 1026.1
20210517215241 67 265 0.9 2.6 0.00 0.00 0.00 57 1026.1
20210517214745 67 265 0.9 2.6 0.00 0.00 0.00 63 1026.0
20210517214240 67 265 0.0 2.6 0.00 0.00 0.00 62 1026.0
20210517213742 67 265 0.0 1.7 0.00 0.00 0.00 63 1026.2
20210517213239 67 265 0.0 1.7 0.00 0.00 0.00 61 1026.2
20210517212739 68 265 0.9 2.6 0.00 0.00 0.00 59 1026.3
20210517211232 69 265 0.0 2.6 0.00 0.00 0.00 58 1026.3
20210517210237 69 325 0.0 2.6 0.00 0.00 0.00 56 1026.3
20210517205730 69 281 0.0 1.7 0.00 0.00 0.00 58 1026.3
20210517205234 69 280 0.9 2.6 0.00 0.00 0.00 55 1026.1
20210517204235 69 265 0.9 2.6 0.00 0.00 0.00 55 1026.2
20210517203732 69 317 0.9 2.6 0.00 0.00 0.00 54 1026.1
20210517203236 69 314 0.9 2.6 0.00 0.00 0.00 56 1026.1
20210517202731 68 9 0.9 2.6 0.00 0.00 0.00 56 1026.1
20210517202233 68 9 0.9 1.7 0.00 0.00 0.00 57 1026.0
20210517201733 68 9 0.9 1.7 0.00 0.00 0.00 56 1026.2